Back to Top

Language: 

My Weather Underground Personal Weather Station Historical Data with Graphs...

Delerius Weather Station Historical Data
Daily Summary for October 1, 2017 Units:  English    Metric   Both
« Previous Day
Next Day »
Daily Weekly Monthly Yearly Custom
  High: Low: Average:
Temperature: 63.1 °F 54.9 °F 59.2 °F
Dew Point: 59.8 °F 53.7 °F 56.5 °F
Humidity: 98 % 80 % 91 %
Wind Speed: 17.0 mph 1.0 mph 7.8 mph
Wind Gust: 30.0 mph - -
Wind:- - SSW
Pressure: 29.84 in 29.60 in -
Precipitation: 0.04 in    
Historical Graphs
 
 
Tabular Data for October 1, 2017
Time Temperature Dew Point Pressure Wind Wind Speed Wind Gust Humidity Rainfall Rate (Hourly) solar Conditions
00:04 54.9 °F 53.7 °F 29.84 in ESE 3.0 mph 6.0 mph 96 % 0.00 in 0 W/m2
00:09 55.0 °F 53.9 °F 29.84 in ESE 2.0 mph 5.0 mph 96 % 0.00 in 0 W/m2
00:14 55.0 °F 53.9 °F 29.84 in ESE 3.0 mph 6.0 mph 96 % 0.00 in 0 W/m2
00:19 55.0 °F 53.9 °F 29.84 in ESE 3.0 mph 6.0 mph 96 % 0.00 in 0 W/m2
00:24 55.0 °F 53.9 °F 29.84 in ESE 3.0 mph 7.0 mph 96 % 0.00 in 0 W/m2
00:29 55.0 °F 53.9 °F 29.84 in ESE 3.0 mph 7.0 mph 96 % 0.00 in 0 W/m2
00:34 55.0 °F 54.2 °F 29.84 in ESE 3.0 mph 7.0 mph 97 % 0.01 in 0 W/m2
00:39 55.0 °F 54.2 °F 29.84 in ESE 3.0 mph 7.0 mph 97 % 0.01 in 0 W/m2
00:44 55.0 °F 54.2 °F 29.83 in ESE 4.0 mph 7.0 mph 97 % 0.01 in 0 W/m2
00:49 55.0 °F 54.2 °F 29.83 in ESE 3.0 mph 7.0 mph 97 % 0.01 in 0 W/m2
00:54 55.0 °F 54.2 °F 29.83 in ESE 4.0 mph 7.0 mph 97 % 0.01 in 0 W/m2
00:59 55.0 °F 54.2 °F 29.83 in SE 5.0 mph 8.0 mph 97 % 0.01 in 0 W/m2
01:04 55.0 °F 54.2 °F 29.83 in SE 5.0 mph 8.0 mph 97 % 0.01 in 0 W/m2
01:09 55.0 °F 54.2 °F 29.83 in SE 5.0 mph 8.0 mph 97 % 0.01 in 0 W/m2
01:14 55.0 °F 54.2 °F 29.83 in SE 5.0 mph 8.0 mph 97 % 0.01 in 0 W/m2
01:19 55.0 °F 54.2 °F 29.82 in SE 5.0 mph 9.0 mph 97 % 0.01 in 0 W/m2
01:24 55.0 °F 54.2 °F 29.82 in SSE 5.0 mph 10.0 mph 97 % 0.01 in 0 W/m2
01:29 55.0 °F 54.2 °F 29.82 in SE 5.0 mph 10.0 mph 97 % 0.01 in 0 W/m2
01:34 55.0 °F 54.2 °F 29.82 in SE 5.0 mph 9.0 mph 97 % 0.00 in 0 W/m2
01:39 55.0 °F 54.2 °F 29.82 in SE 5.0 mph 9.0 mph 97 % 0.01 in 0 W/m2
01:44 55.0 °F 54.2 °F 29.81 in SE 4.0 mph 9.0 mph 97 % 0.01 in 0 W/m2
01:49 55.0 °F 54.2 °F 29.81 in SE 5.0 mph 8.0 mph 97 % 0.01 in 0 W/m2
01:54 54.9 °F 54.0 °F 29.81 in SE 5.0 mph 8.0 mph 97 % 0.01 in 0 W/m2
01:59 55.0 °F 54.2 °F 29.81 in ESE 5.0 mph 9.0 mph 97 % 0.01 in 0 W/m2
02:04 54.9 °F 54.0 °F 29.82 in SE 5.0 mph 9.0 mph 97 % 0.01 in 0 W/m2
02:14 55.0 °F 54.2 °F 29.82 in SE 3.0 mph 8.0 mph 97 % 0.01 in 0 W/m2
02:19 55.0 °F 54.2 °F 29.81 in SE 4.0 mph 8.0 mph 97 % 0.01 in 0 W/m2
02:24 55.0 °F 54.2 °F 29.81 in SE 4.0 mph 8.0 mph 97 % 0.01 in 0 W/m2
02:29 54.9 °F 54.0 °F 29.81 in SE 5.0 mph 8.0 mph 97 % 0.01 in 0 W/m2
02:34 55.0 °F 54.2 °F 29.80 in SE 5.0 mph 8.0 mph 97 % 0.01 in 0 W/m2
02:39 55.0 °F 54.2 °F 29.80 in SE 5.0 mph 9.0 mph 97 % 0.00 in 0 W/m2
02:44 54.9 °F 54.0 °F 29.80 in SE 5.0 mph 9.0 mph 97 % 0.00 in 0 W/m2
02:49 54.9 °F 54.0 °F 29.80 in SE 5.0 mph 7.0 mph 97 % 0.00 in 0 W/m2
02:54 55.0 °F 54.2 °F 29.80 in SE 5.0 mph 8.0 mph 97 % 0.00 in 0 W/m2
03:00 55.0 °F 54.2 °F 29.80 in SE 4.0 mph 8.0 mph 97 % 0.00 in 0 W/m2
03:05 55.0 °F 54.2 °F 29.80 in SE 3.0 mph 7.0 mph 97 % 0.00 in 0 W/m2
03:10 55.0 °F 54.2 °F 29.80 in SE 4.0 mph 7.0 mph 97 % 0.00 in 0 W/m2
03:15 55.0 °F 54.2 °F 29.79 in SE 4.0 mph 8.0 mph 97 % 0.00 in 0 W/m2
03:20 55.0 °F 54.2 °F 29.79 in SE 5.0 mph 10.0 mph 97 % 0.00 in 0 W/m2
03:25 55.0 °F 54.2 °F 29.78 in SE 5.0 mph 10.0 mph 97 % 0.00 in 0 W/m2
03:30 55.0 °F 54.2 °F 29.78 in ESE 4.0 mph 7.0 mph 97 % 0.01 in 0 W/m2
03:35 55.0 °F 54.2 °F 29.78 in SE 4.0 mph 7.0 mph 97 % 0.01 in 0 W/m2
03:40 55.0 °F 54.2 °F 29.77 in SE 4.0 mph 7.0 mph 97 % 0.01 in 0 W/m2
03:45 55.0 °F 54.2 °F 29.77 in SE 4.0 mph 7.0 mph 97 % 0.01 in 0 W/m2
03:50 55.0 °F 54.2 °F 29.77 in SE 5.0 mph 7.0 mph 97 % 0.01 in 0 W/m2
03:55 55.0 °F 54.2 °F 29.77 in SE 5.0 mph 7.0 mph 97 % 0.01 in 0 W/m2
04:00 55.0 °F 54.2 °F 29.77 in SE 4.0 mph 7.0 mph 97 % 0.01 in 0 W/m2
04:05 55.0 °F 54.2 °F 29.78 in SE 4.0 mph 7.0 mph 97 % 0.01 in 0 W/m2
04:10 55.0 °F 54.2 °F 29.78 in ESE 4.0 mph 6.0 mph 97 % 0.01 in 0 W/m2
04:15 55.2 °F 54.4 °F 29.77 in ESE 3.0 mph 7.0 mph 97 % 0.01 in 0 W/m2
04:20 55.2 °F 54.4 °F 29.77 in SE 4.0 mph 7.0 mph 97 % 0.01 in 0 W/m2
04:25 55.2 °F 54.4 °F 29.77 in SE 4.0 mph 8.0 mph 97 % 0.01 in 0 W/m2
04:30 55.2 °F 54.4 °F 29.77 in SE 4.0 mph 8.0 mph 97 % 0.00 in 0 W/m2
04:35 55.2 °F 54.4 °F 29.76 in SE 3.0 mph 6.0 mph 97 % 0.00 in 0 W/m2
04:40 55.2 °F 54.4 °F 29.76 in SSE 3.0 mph 6.0 mph 97 % 0.00 in 0 W/m2
04:45 55.2 °F 54.4 °F 29.76 in SSE 3.0 mph 6.0 mph 97 % 0.00 in 0 W/m2
04:50 55.4 °F 54.6 °F 29.77 in SSE 3.0 mph 7.0 mph 97 % 0.00 in 0 W/m2
04:55 55.4 °F 54.6 °F 29.77 in SSE 3.0 mph 8.0 mph 97 % 0.00 in 0 W/m2
05:00 55.4 °F 54.6 °F 29.77 in South 2.0 mph 8.0 mph 97 % 0.00 in 0 W/m2
05:05 55.4 °F 54.6 °F 29.76 in SSE 1.0 mph 5.0 mph 97 % 0.00 in 0 W/m2
05:10 55.6 °F 54.7 °F 29.76 in SSE 1.0 mph 4.0 mph 97 % 0.00 in 0 W/m2
05:15 55.6 °F 54.7 °F 29.76 in SSE 2.0 mph 6.0 mph 97 % 0.00 in 0 W/m2
05:20 55.6 °F 54.7 °F 29.76 in SSE 3.0 mph 7.0 mph 97 % 0.00 in 0 W/m2
05:25 55.6 °F 54.7 °F 29.76 in South 3.0 mph 10.0 mph 97 % 0.00 in 0 W/m2
05:30 55.6 °F 54.7 °F 29.76 in South 3.0 mph 10.0 mph 97 % 0.00 in 0 W/m2
05:35 55.8 °F 54.9 °F 29.76 in SSE 3.0 mph 7.0 mph 97 % 0.00 in 0 W/m2
05:40 55.8 °F 54.9 °F 29.76 in SSE 3.0 mph 7.0 mph 97 % 0.00 in 0 W/m2
05:45 55.8 °F 54.9 °F 29.76 in SSE 4.0 mph 7.0 mph 97 % 0.00 in 0 W/m2
05:50 55.8 °F 54.9 °F 29.76 in SSE 5.0 mph 7.0 mph 97 % 0.00 in 0 W/m2
05:55 55.8 °F 54.9 °F 29.76 in SSE 3.0 mph 7.0 mph 97 % 0.00 in 0 W/m2
06:00 55.8 °F 54.9 °F 29.76 in SSE 2.0 mph 5.0 mph 97 % 0.00 in 0 W/m2
06:05 55.8 °F 54.9 °F 29.76 in SSE 3.0 mph 7.0 mph 97 % 0.00 in 0 W/m2
06:10 55.9 °F 55.1 °F 29.76 in South 3.0 mph 7.0 mph 97 % 0.00 in 0 W/m2
06:15 55.9 °F 55.1 °F 29.76 in South 3.0 mph 7.0 mph 97 % 0.00 in 0 W/m2
06:19 55.9 °F 55.1 °F 29.76 in South 3.0 mph 8.0 mph 97 % 0.00 in 0 W/m2
06:24 55.9 °F 55.1 °F 29.75 in South 3.0 mph 8.0 mph 97 % 0.00 in 0 W/m2
06:29 55.9 °F 55.4 °F 29.75 in South 3.0 mph 7.0 mph 98 % 0.00 in 0 W/m2
06:34 55.9 °F 55.4 °F 29.75 in South 4.0 mph 9.0 mph 98 % 0.00 in 0 W/m2
06:39 55.9 °F 55.4 °F 29.75 in South 4.0 mph 9.0 mph 98 % 0.00 in 0 W/m2
06:44 55.9 °F 55.4 °F 29.75 in South 5.0 mph 10.0 mph 98 % 0.00 in 0 W/m2
06:49 55.9 °F 55.4 °F 29.75 in SSE 4.0 mph 10.0 mph 98 % 0.00 in 0 W/m2
06:54 55.9 °F 55.4 °F 29.74 in SSE 3.0 mph 7.0 mph 98 % 0.01 in 0 W/m2
06:59 56.1 °F 55.6 °F 29.74 in South 2.0 mph 7.0 mph 98 % 0.01 in 0 W/m2
07:04 56.1 °F 55.6 °F 29.75 in SSE 2.0 mph 7.0 mph 98 % 0.01 in 0 W/m2
07:09 56.1 °F 55.6 °F 29.75 in South 3.0 mph 7.0 mph 98 % 0.01 in 0 W/m2
07:14 56.1 °F 55.3 °F 29.74 in SSW 4.0 mph 7.0 mph 97 % 0.01 in 0 W/m2
07:19 56.3 °F 55.5 °F 29.74 in South 3.0 mph 6.0 mph 97 % 0.01 in 0 W/m2
07:24 56.3 °F 55.5 °F 29.73 in South 3.0 mph 7.0 mph 97 % 0.01 in 5 W/m2
07:29 56.3 °F 55.5 °F 29.73 in SSE 4.0 mph 8.0 mph 97 % 0.01 in 5 W/m2
07:34 56.5 °F 55.6 °F 29.74 in SSE 5.0 mph 13.0 mph 97 % 0.01 in 5 W/m2
07:39 56.5 °F 55.6 °F 29.74 in South 6.0 mph 13.0 mph 97 % 0.01 in 5 W/m2
07:44 56.5 °F 55.6 °F 29.74 in South 6.0 mph 11.0 mph 97 % 0.01 in 11 W/m2
07:49 56.5 °F 55.9 °F 29.74 in South 6.0 mph 10.0 mph 98 % 0.01 in 16 W/m2
07:54 56.7 °F 56.1 °F 29.74 in South 6.0 mph 10.0 mph 98 % 0.00 in 19 W/m2
07:59 56.7 °F 56.1 °F 29.74 in SSE 6.0 mph 10.0 mph 98 % 0.00 in 14 W/m2
08:04 56.7 °F 56.1 °F 29.74 in SSE 5.0 mph 9.0 mph 98 % 0.00 in 18 W/m2
08:09 56.8 °F 56.3 °F 29.74 in SSE 4.0 mph 9.0 mph 98 % 0.00 in 23 W/m2
08:14 56.8 °F 56.3 °F 29.74 in SSE 4.0 mph 8.0 mph 98 % 0.00 in 23 W/m2
08:19 56.8 °F 56.3 °F 29.74 in South 4.0 mph 8.0 mph 98 % 0.00 in 21 W/m2
08:24 57.0 °F 56.5 °F 29.75 in South 5.0 mph 8.0 mph 98 % 0.00 in 21 W/m2
08:29 57.0 °F 56.5 °F 29.75 in South 5.0 mph 11.0 mph 98 % 0.00 in 23 W/m2
08:34 57.0 °F 56.5 °F 29.74 in South 6.0 mph 11.0 mph 98 % 0.00 in 26 W/m2
08:39 57.2 °F 56.6 °F 29.74 in SSE 5.0 mph 10.0 mph 98 % 0.01 in 26 W/m2
08:44 57.2 °F 56.6 °F 29.74 in SSE 6.0 mph 10.0 mph 98 % 0.01 in 26 W/m2
08:49 57.4 °F 56.8 °F 29.74 in SSE 5.0 mph 9.0 mph 98 % 0.01 in 30 W/m2
08:54 57.4 °F 56.8 °F 29.74 in SSE 5.0 mph 10.0 mph 98 % 0.01 in 39 W/m2
08:59 57.4 °F 56.8 °F 29.74 in SSE 6.0 mph 10.0 mph 98 % 0.01 in 33 W/m2
09:04 57.6 °F 57.0 °F 29.73 in South 6.0 mph 10.0 mph 98 % 0.01 in 42 W/m2
09:09 57.6 °F 56.7 °F 29.74 in South 5.0 mph 10.0 mph 97 % 0.01 in 54 W/m2
09:14 57.6 °F 56.7 °F 29.74 in South 6.0 mph 12.0 mph 97 % 0.01 in 47 W/m2
09:19 57.7 °F 56.9 °F 29.74 in South 6.0 mph 12.0 mph 97 % 0.01 in 53 W/m2
09:24 57.7 °F 57.2 °F 29.74 in South 7.0 mph 12.0 mph 98 % 0.01 in 74 W/m2
09:29 57.9 °F 57.4 °F 29.74 in South 8.0 mph 12.0 mph 98 % 0.01 in 77 W/m2
09:34 57.9 °F 57.4 °F 29.73 in South 8.0 mph 14.0 mph 98 % 0.01 in 69 W/m2
09:39 58.1 °F 57.3 °F 29.73 in South 7.0 mph 14.0 mph 97 % 0.00 in 77 W/m2
09:44 58.1 °F 57.3 °F 29.73 in South 7.0 mph 14.0 mph 97 % 0.00 in 88 W/m2
09:49 58.3 °F 57.4 °F 29.73 in SSE 7.0 mph 14.0 mph 97 % 0.00 in 107 W/m2
09:54 58.5 °F 57.6 °F 29.73 in SSE 7.0 mph 13.0 mph 97 % 0.00 in 107 W/m2
09:59 58.5 °F 57.9 °F 29.72 in SSE 7.0 mph 13.0 mph 98 % 0.00 in 98 W/m2
10:00 58.5 °F 57.9 °F 29.72 in SSE 7.0 mph 13.0 mph 98 % 0.00 in 98 W/m2
10:05 58.5 °F 57.9 °F 29.72 in SSE 7.0 mph 13.0 mph 98 % 0.00 in 88 W/m2
10:07 58.5 °F 57.6 °F 29.72 in SSE 7.0 mph 13.0 mph 97 % 0.00 in 77 W/m2
10:12 58.6 °F 57.8 °F 29.71 in SSE 6.0 mph 10.0 mph 97 % 0.00 in 107 W/m2
10:17 58.6 °F 57.8 °F 29.71 in SSE 6.0 mph 10.0 mph 97 % 0.00 in 88 W/m2
10:22 58.8 °F 58.0 °F 29.72 in SSE 6.0 mph 11.0 mph 97 % 0.00 in 107 W/m2
10:27 58.8 °F 58.0 °F 29.72 in South 6.0 mph 11.0 mph 97 % 0.00 in 111 W/m2
10:32 59.0 °F 58.4 °F 29.72 in South 6.0 mph 11.0 mph 98 % 0.00 in 118 W/m2
10:37 59.2 °F 58.3 °F 29.72 in South 6.0 mph 10.0 mph 97 % 0.00 in 116 W/m2
10:42 59.2 °F 58.3 °F 29.73 in SSW 7.0 mph 11.0 mph 97 % 0.00 in 76 W/m2
10:47 59.2 °F 58.3 °F 29.72 in SSW 8.0 mph 14.0 mph 97 % 0.00 in 100 W/m2
10:52 59.2 °F 58.3 °F 29.72 in SSW 8.0 mph 14.0 mph 97 % 0.00 in 128 W/m2
10:57 59.2 °F 58.3 °F 29.72 in SSW 9.0 mph 16.0 mph 97 % 0.00 in 104 W/m2
11:02 59.2 °F 58.0 °F 29.72 in SSW 10.0 mph 16.0 mph 96 % 0.00 in 76 W/m2
11:07 59.2 °F 57.7 °F 29.72 in SSW 10.0 mph 15.0 mph 95 % 0.00 in 95 W/m2
11:12 59.2 °F 57.5 °F 29.71 in SSW 9.0 mph 18.0 mph 94 % 0.00 in 118 W/m2
11:17 59.4 °F 57.6 °F 29.71 in SSW 9.0 mph 18.0 mph 94 % 0.00 in 141 W/m2
11:22 59.5 °F 57.5 °F 29.71 in SSW 8.0 mph 18.0 mph 93 % 0.00 in 144 W/m2
11:27 59.5 °F 57.2 °F 29.70 in SSW 9.0 mph 16.0 mph 92 % 0.00 in 218 W/m2
11:32 59.5 °F 57.2 °F 29.71 in SSW 11.0 mph 16.0 mph 92 % 0.00 in 158 W/m2
11:37 59.7 °F 57.1 °F 29.71 in SSW 10.0 mph 19.0 mph 91 % 0.00 in 181 W/m2
11:42 60.1 °F 57.4 °F 29.71 in SSW 11.0 mph 20.0 mph 91 % 0.00 in 216 W/m2
11:47 60.3 °F 57.6 °F 29.70 in SSW 11.0 mph 20.0 mph 91 % 0.00 in 276 W/m2
11:52 60.6 °F 57.7 °F 29.70 in SSW 9.0 mph 16.0 mph 90 % 0.00 in 482 W/m2
11:57 61.0 °F 57.7 °F 29.69 in SSW 11.0 mph 23.0 mph 89 % 0.00 in 475 W/m2
12:02 61.3 °F 57.4 °F 29.69 in SSW 13.0 mph 24.0 mph 87 % 0.00 in 299 W/m2
12:07 61.5 °F 57.3 °F 29.69 in SSW 12.0 mph 24.0 mph 86 % 0.00 in 295 W/m2
12:12 61.5 °F 57.3 °F 29.69 in SSW 13.0 mph 24.0 mph 86 % 0.00 in 334 W/m2
12:17 61.5 °F 57.3 °F 29.68 in SSW 14.0 mph 24.0 mph 86 % 0.00 in 396 W/m2
12:22 61.9 °F 57.6 °F 29.68 in SSW 12.0 mph 23.0 mph 86 % 0.00 in 399 W/m2
12:27 62.1 °F 57.5 °F 29.67 in SSW 12.0 mph 26.0 mph 85 % 0.00 in 624 W/m2
12:32 62.2 °F 57.7 °F 29.67 in SSW 14.0 mph 28.0 mph 85 % 0.00 in 522 W/m2
12:37 62.4 °F 57.8 °F 29.67 in SSW 17.0 mph 30.0 mph 85 % 0.00 in 561 W/m2
12:38 62.4 °F 58.2 °F 29.67 in SSW 16.0 mph 30.0 mph 86 % 0.00 in 554 W/m2
12:43 63.0 °F 58.4 °F 29.66 in SSW 13.0 mph 29.0 mph 85 % 0.00 in 476 W/m2
12:48 63.1 °F 58.2 °F 29.66 in SSW 14.0 mph 28.0 mph 84 % 0.00 in 485 W/m2
12:53 63.1 °F 58.6 °F 29.66 in SSW 15.0 mph 28.0 mph 85 % 0.00 in 348 W/m2
12:58 62.8 °F 58.2 °F 29.66 in SSW 14.0 mph 26.0 mph 85 % 0.00 in 297 W/m2
13:03 62.2 °F 57.7 °F 29.66 in SSW 14.0 mph 26.0 mph 85 % 0.00 in 346 W/m2
13:08 62.2 °F 57.7 °F 29.66 in SSW 15.0 mph 24.0 mph 85 % 0.00 in 411 W/m2
13:13 62.2 °F 58.0 °F 29.67 in SSW 15.0 mph 24.0 mph 86 % 0.00 in 332 W/m2
13:18 62.2 °F 58.0 °F 29.67 in SSW 15.0 mph 27.0 mph 86 % 0.00 in 279 W/m2
13:29 62.1 °F 57.8 °F 29.67 in SSW 14.0 mph 29.0 mph 86 % 0.00 in 214 W/m2
13:34 62.1 °F 58.1 °F 29.67 in SSW 12.0 mph 23.0 mph 87 % 0.00 in 193 W/m2
13:39 61.9 °F 57.6 °F 29.66 in SSW 12.0 mph 26.0 mph 86 % 0.00 in 192 W/m2
13:49 61.9 °F 58.0 °F 29.67 in SSW 10.0 mph 24.0 mph 87 % 0.00 in 123 W/m2
13:54 61.9 °F 58.0 °F 29.67 in SSW 10.0 mph 19.0 mph 87 % 0.00 in 98 W/m2
13:59 61.9 °F 58.0 °F 29.67 in SSW 9.0 mph 20.0 mph 87 % 0.00 in 88 W/m2
14:04 61.9 °F 58.0 °F 29.66 in South 8.0 mph 20.0 mph 87 % 0.00 in 84 W/m2
14:09 61.9 °F 58.0 °F 29.66 in South 8.0 mph 15.0 mph 87 % 0.00 in 109 W/m2
14:14 61.9 °F 58.0 °F 29.66 in South 8.0 mph 15.0 mph 87 % 0.00 in 128 W/m2
14:19 62.1 °F 58.1 °F 29.66 in SSW 9.0 mph 20.0 mph 87 % 0.00 in 139 W/m2
14:24 62.1 °F 58.1 °F 29.65 in SSW 11.0 mph 23.0 mph 87 % 0.00 in 125 W/m2
14:29 62.1 °F 58.1 °F 29.65 in South 11.0 mph 23.0 mph 87 % 0.00 in 128 W/m2
14:34 62.2 °F 58.3 °F 29.65 in South 11.0 mph 22.0 mph 87 % 0.00 in 155 W/m2
14:39 62.2 °F 58.3 °F 29.65 in SSW 13.0 mph 27.0 mph 87 % 0.00 in 84 W/m2
14:44 62.2 °F 58.3 °F 29.64 in SSW 12.0 mph 27.0 mph 87 % 0.00 in 121 W/m2
14:49 62.2 °F 58.3 °F 29.64 in South 11.0 mph 25.0 mph 87 % 0.00 in 81 W/m2
14:54 62.2 °F 58.3 °F 29.65 in SSW 11.0 mph 20.0 mph 87 % 0.00 in 70 W/m2
14:59 62.2 °F 58.6 °F 29.65 in SSW 11.0 mph 19.0 mph 88 % 0.00 in 105 W/m2
15:04 62.2 °F 58.6 °F 29.64 in SSW 11.0 mph 20.0 mph 88 % 0.00 in 104 W/m2
15:09 62.2 °F 58.6 °F 29.65 in SSW 12.0 mph 21.0 mph 88 % 0.00 in 97 W/m2
15:14 62.4 °F 58.8 °F 29.64 in SSW 12.0 mph 21.0 mph 88 % 0.00 in 223 W/m2
15:19 62.6 °F 58.7 °F 29.65 in SSW 11.0 mph 20.0 mph 87 % 0.00 in 97 W/m2
15:24 62.6 °F 58.7 °F 29.64 in SSW 11.0 mph 27.0 mph 87 % 0.00 in 67 W/m2
15:29 62.8 °F 58.9 °F 29.64 in SSW 11.0 mph 27.0 mph 87 % 0.00 in 118 W/m2
15:34 62.8 °F 58.9 °F 29.64 in SSW 13.0 mph 25.0 mph 87 % 0.00 in 113 W/m2
15:35 62.8 °F 58.9 °F 29.64 in SSW 12.0 mph 25.0 mph 87 % 0.00 in 113 W/m2
15:40 63.0 °F 58.7 °F 29.64 in SSW 12.0 mph 25.0 mph 86 % 0.00 in 116 W/m2
15:45 63.1 °F 58.9 °F 29.63 in SSW 12.0 mph 23.0 mph 86 % 0.00 in 95 W/m2
15:50 63.1 °F 58.9 °F 29.62 in SSW 13.0 mph 25.0 mph 86 % 0.00 in 65 W/m2
15:55 63.1 °F 58.9 °F 29.63 in SSW 10.0 mph 25.0 mph 86 % 0.00 in 51 W/m2
16:00 63.1 °F 58.9 °F 29.63 in SSW 7.0 mph 14.0 mph 86 % 0.00 in 60 W/m2
16:05 63.1 °F 58.9 °F 29.63 in SSW 9.0 mph 19.0 mph 86 % 0.00 in 76 W/m2
16:10 63.1 °F 58.9 °F 29.63 in SSW 11.0 mph 19.0 mph 86 % 0.00 in 79 W/m2
16:15 63.1 °F 59.2 °F 29.63 in SSW 11.0 mph 20.0 mph 87 % 0.00 in 63 W/m2
16:20 63.1 °F 59.2 °F 29.62 in SSW 10.0 mph 20.0 mph 87 % 0.00 in 76 W/m2
16:25 63.1 °F 59.2 °F 29.62 in SSW 9.0 mph 19.0 mph 87 % 0.00 in 54 W/m2
16:30 63.1 °F 59.2 °F 29.62 in SSW 10.0 mph 20.0 mph 87 % 0.00 in 51 W/m2
16:35 63.1 °F 59.2 °F 29.62 in SSW 10.0 mph 21.0 mph 87 % 0.00 in 51 W/m2
16:40 63.1 °F 59.2 °F 29.62 in SSW 10.0 mph 21.0 mph 87 % 0.00 in 47 W/m2
16:45 63.1 °F 59.2 °F 29.61 in SSW 11.0 mph 23.0 mph 87 % 0.00 in 51 W/m2
16:50 63.1 °F 59.2 °F 29.61 in SSW 11.0 mph 23.0 mph 87 % 0.00 in 74 W/m2
16:55 63.0 °F 59.0 °F 29.61 in SSW 10.0 mph 22.0 mph 87 % 0.00 in 51 W/m2
17:00 63.0 °F 59.3 °F 29.61 in SSW 12.0 mph 22.0 mph 88 % 0.00 in 47 W/m2
17:05 63.0 °F 59.3 °F 29.61 in SSW 12.0 mph 20.0 mph 88 % 0.00 in 37 W/m2
17:10 63.0 °F 59.3 °F 29.61 in SSW 10.0 mph 20.0 mph 88 % 0.00 in 40 W/m2
17:15 62.8 °F 59.2 °F 29.60 in SSW 11.0 mph 22.0 mph 88 % 0.00 in 32 W/m2
17:20 62.8 °F 59.2 °F 29.61 in SW 11.0 mph 22.0 mph 88 % 0.00 in 23 W/m2
17:25 62.8 °F 59.2 °F 29.61 in SW 9.0 mph 19.0 mph 88 % 0.00 in 28 W/m2
17:30 62.8 °F 59.5 °F 29.61 in SW 9.0 mph 16.0 mph 89 % 0.00 in 33 W/m2
17:35 62.6 °F 59.6 °F 29.60 in SW 9.0 mph 16.0 mph 90 % 0.00 in 33 W/m2
17:40 62.4 °F 59.4 °F 29.60 in SW 8.0 mph 14.0 mph 90 % 0.00 in 21 W/m2
17:45 62.2 °F 59.6 °F 29.61 in SW 9.0 mph 18.0 mph 91 % 0.00 in 23 W/m2
17:50 62.2 °F 59.6 °F 29.61 in SW 9.0 mph 18.0 mph 91 % 0.00 in 21 W/m2
17:55 62.2 °F 59.6 °F 29.60 in SW 8.0 mph 16.0 mph 91 % 0.00 in 26 W/m2
18:00 62.1 °F 59.4 °F 29.61 in SW 9.0 mph 20.0 mph 91 % 0.00 in 25 W/m2
18:05 62.1 °F 59.7 °F 29.61 in SW 10.0 mph 20.0 mph 92 % 0.00 in 25 W/m2
18:10 62.1 °F 59.7 °F 29.61 in WSW 9.0 mph 19.0 mph 92 % 0.00 in 21 W/m2
18:15 62.1 °F 59.4 °F 29.60 in WSW 10.0 mph 19.0 mph 91 % 0.00 in 14 W/m2
18:25 62.4 °F 59.8 °F 29.60 in WSW 10.0 mph 16.0 mph 91 % 0.00 in 11 W/m2
18:30 62.4 °F 59.4 °F 29.61 in WSW 9.0 mph 15.0 mph 90 % 0.00 in 7 W/m2
18:35 62.4 °F 59.1 °F 29.61 in WSW 10.0 mph 18.0 mph 89 % 0.00 in 0 W/m2
18:40 62.6 °F 59.3 °F 29.61 in WSW 10.0 mph 18.0 mph 89 % 0.00 in 0 W/m2
18:45 62.8 °F 59.2 °F 29.60 in WSW 8.0 mph 14.0 mph 88 % 0.00 in 0 W/m2
18:50 62.8 °F 58.9 °F 29.60 in WSW 8.0 mph 14.0 mph 87 % 0.00 in 0 W/m2
18:55 63.0 °F 59.0 °F 29.60 in WSW 7.0 mph 14.0 mph 87 % 0.00 in 0 W/m2
18:56 63.0 °F 59.0 °F 29.60 in WSW 7.0 mph 14.0 mph 87 % 0.00 in 0 W/m2
19:01 63.0 °F 59.0 °F 29.61 in WSW 6.0 mph 11.0 mph 87 % 0.00 in 0 W/m2
19:06 63.0 °F 59.0 °F 29.60 in WSW 5.0 mph 9.0 mph 87 % 0.00 in 0 W/m2
19:11 63.0 °F 58.7 °F 29.61 in WSW 6.0 mph 13.0 mph 86 % 0.00 in 0 W/m2
19:16 63.0 °F 58.7 °F 29.60 in WSW 7.0 mph 13.0 mph 86 % 0.00 in 0 W/m2
19:21 62.8 °F 58.5 °F 29.61 in WSW 6.0 mph 11.0 mph 86 % 0.00 in 0 W/m2
19:26 62.8 °F 58.5 °F 29.61 in WSW 6.0 mph 11.0 mph 86 % 0.00 in 0 W/m2
19:31 62.8 °F 58.5 °F 29.61 in WSW 5.0 mph 11.0 mph 86 % 0.00 in 0 W/m2
19:36 62.6 °F 58.4 °F 29.61 in SW 5.0 mph 10.0 mph 86 % 0.00 in 0 W/m2
19:41 62.4 °F 58.2 °F 29.61 in SW 5.0 mph 10.0 mph 86 % 0.00 in 0 W/m2
19:46 62.2 °F 58.0 °F 29.61 in SW 5.0 mph 10.0 mph 86 % 0.00 in 0 W/m2
19:51 62.2 °F 57.7 °F 29.61 in SW 5.0 mph 10.0 mph 85 % 0.00 in 0 W/m2
19:56 62.1 °F 57.5 °F 29.61 in WSW 4.0 mph 7.0 mph 85 % 0.00 in 0 W/m2
20:01 62.1 °F 57.2 °F 29.60 in SW 6.0 mph 14.0 mph 84 % 0.00 in 0 W/m2
20:06 62.1 °F 57.2 °F 29.61 in SW 8.0 mph 15.0 mph 84 % 0.00 in 0 W/m2
20:11 62.1 °F 57.2 °F 29.60 in SW 8.0 mph 15.0 mph 84 % 0.00 in 0 W/m2
20:16 62.1 °F 57.2 °F 29.61 in SW 8.0 mph 13.0 mph 84 % 0.00 in 0 W/m2
20:21 62.1 °F 56.8 °F 29.61 in SW 8.0 mph 13.0 mph 83 % 0.00 in 0 W/m2
20:26 62.1 °F 56.8 °F 29.61 in SW 8.0 mph 15.0 mph 83 % 0.00 in 0 W/m2
20:31 61.9 °F 56.7 °F 29.61 in SW 9.0 mph 20.0 mph 83 % 0.00 in 0 W/m2
20:36 61.9 °F 56.7 °F 29.62 in SW 9.0 mph 20.0 mph 83 % 0.00 in 0 W/m2
20:41 61.9 °F 56.3 °F 29.61 in SW 8.0 mph 21.0 mph 82 % 0.00 in 0 W/m2
20:46 61.9 °F 56.3 °F 29.62 in WSW 9.0 mph 21.0 mph 82 % 0.00 in 0 W/m2
20:51 61.9 °F 56.0 °F 29.62 in WSW 10.0 mph 23.0 mph 81 % 0.00 in 0 W/m2
20:56 61.9 °F 56.0 °F 29.62 in SW 11.0 mph 23.0 mph 81 % 0.00 in 0 W/m2
21:01 61.9 °F 56.0 °F 29.62 in WSW 11.0 mph 20.0 mph 81 % 0.00 in 0 W/m2
21:06 61.7 °F 55.8 °F 29.62 in WSW 10.0 mph 20.0 mph 81 % 0.00 in 0 W/m2
21:11 61.5 °F 55.6 °F 29.62 in WSW 10.0 mph 20.0 mph 81 % 0.00 in 0 W/m2
21:16 61.3 °F 55.1 °F 29.62 in WSW 12.0 mph 25.0 mph 80 % 0.00 in 0 W/m2
21:21 61.3 °F 55.1 °F 29.63 in WSW 15.0 mph 25.0 mph 80 % 0.00 in 0 W/m2
21:26 61.2 °F 54.9 °F 29.62 in WSW 14.0 mph 25.0 mph 80 % 0.00 in 0 W/m2
21:31 61.0 °F 54.8 °F 29.61 in WSW 13.0 mph 23.0 mph 80 % 0.00 in 0 W/m2
21:36 60.8 °F 54.6 °F 29.61 in WSW 12.0 mph 23.0 mph 80 % 0.00 in 0 W/m2
21:41 60.6 °F 54.8 °F 29.61 in WSW 10.0 mph 21.0 mph 81 % 0.00 in 0 W/m2
21:46 60.4 °F 54.6 °F 29.61 in WSW 12.0 mph 24.0 mph 81 % 0.00 in 0 W/m2
21:51 60.4 °F 54.6 °F 29.61 in WSW 13.0 mph 25.0 mph 81 % 0.00 in 0 W/m2
21:56 60.4 °F 54.6 °F 29.61 in WSW 13.0 mph 26.0 mph 81 % 0.00 in 0 W/m2
22:01 60.3 °F 54.7 °F 29.61 in WSW 14.0 mph 26.0 mph 82 % 0.00 in 0 W/m2
22:06 60.3 °F 54.7 °F 29.61 in WSW 15.0 mph 28.0 mph 82 % 0.00 in 0 W/m2
22:11 60.3 °F 54.7 °F 29.61 in WSW 15.0 mph 28.0 mph 82 % 0.00 in 0 W/m2
22:17 60.3 °F 55.1 °F 29.61 in WSW 14.0 mph 22.0 mph 83 % 0.00 in 0 W/m2
22:22 60.1 °F 54.9 °F 29.61 in WSW 12.0 mph 22.0 mph 83 % 0.00 in 0 W/m2
22:26 60.1 °F 54.9 °F 29.62 in WSW 11.0 mph 19.0 mph 83 % 0.00 in 0 W/m2
22:31 60.3 °F 55.1 °F 29.62 in WSW 10.0 mph 19.0 mph 83 % 0.00 in 0 W/m2
22:36 60.3 °F 55.1 °F 29.61 in WSW 10.0 mph 20.0 mph 83 % 0.00 in 0 W/m2
22:42 60.3 °F 55.1 °F 29.61 in WSW 11.0 mph 20.0 mph 83 % 0.00 in 0 W/m2
22:47 60.3 °F 55.1 °F 29.61 in WSW 11.0 mph 23.0 mph 83 % 0.00 in 0 W/m2
22:52 60.4 °F 54.9 °F 29.62 in WSW 12.0 mph 23.0 mph 82 % 0.00 in 0 W/m2
22:57 60.4 °F 54.9 °F 29.62 in WSW 13.0 mph 24.0 mph 82 % 0.00 in 0 W/m2
23:02 60.4 °F 54.6 °F 29.62 in WSW 12.0 mph 24.0 mph 81 % 0.00 in 0 W/m2
23:07 60.4 °F 54.6 °F 29.62 in WSW 13.0 mph 23.0 mph 81 % 0.00 in 0 W/m2
23:12 60.4 °F 54.6 °F 29.62 in WSW 14.0 mph 23.0 mph 81 % 0.00 in 0 W/m2
23:17 60.4 °F 54.6 °F 29.63 in WSW 13.0 mph 21.0 mph 81 % 0.00 in 0 W/m2
23:22 60.4 °F 54.9 °F 29.63 in WSW 14.0 mph 25.0 mph 82 % 0.00 in 0 W/m2
23:27 60.3 °F 54.7 °F 29.62 in WSW 13.0 mph 25.0 mph 82 % 0.00 in 0 W/m2
23:32 60.3 °F 54.7 °F 29.63 in WSW 13.0 mph 25.0 mph 82 % 0.00 in 0 W/m2
23:37 60.1 °F 54.6 °F 29.63 in WSW 13.0 mph 25.0 mph 82 % 0.00 in 0 W/m2
23:42 59.9 °F 54.4 °F 29.62 in WSW 14.0 mph 25.0 mph 82 % 0.00 in 0 W/m2
23:47 59.7 °F 54.2 °F 29.63 in WSW 13.0 mph 25.0 mph 82 % 0.00 in 0 W/m2
23:52 59.7 °F 54.2 °F 29.63 in WSW 13.0 mph 25.0 mph 82 % 0.00 in 0 W/m2
23:57 59.5 °F 54.0 °F 29.63 in West 13.0 mph 23.0 mph 82 % 0.00 in 0 W/m2
Delerius-Weather
Compliments of Weather Underground - 2.25 mb

Data updates at regular intervals.